Fremont, NE

11:47 PM CDT on April 22, 2018 (GMT -0500)
Fremont Municipal

Weather History for KFET - January, 2014

Change the Weather History Date:

Monday, January 27, 2014

  Actual Average Record
Temperature  
Mean Temperature 4 °F -  
Max Temperature 11 °F 31 °F 59 °F (2006)
Min Temperature -4 °F 12 °F -20 °F (1963)
Degree Days  
Heating Degree Days 62    
Moisture  
Dew Point -9 °F    
Average Humidity 57    
Maximum Humidity 78    
Minimum Humidity 36    
Precipitation  
Precipitation 0.00 in - - ()
Sea Level Pressure  
Sea Level Pressure 30.43 in    
Wind  
Wind Speed 10 mph (NW)    
Max Wind Speed 21 mph    
Max Gust Speed 25 mph    
Visibility 10 miles    
Events      
Averages and records for this station are not official NWS values.
T = Trace of Precipitation, MM = Missing Value Source: NWS Daily Summary

Daily Weather History Graph

Daily Weather History Graph

Search for Another Location

Airport or City:

Astronomy

Jan. 27, 2014 Rise Set
Actual Time 7:42 AM CST 5:35 PM CST
Civil Twilight 7:12 AM CST 6:05 PM CST
Nautical Twilight 6:39 AM CST 6:39 PM CST
Astronomical Twilight 6:06 AM CST 7:11 PM CST
Moon 4:25 AM CST (1/27) 2:22 PM CST (1/27)
Length of Visible Light 10h 53m
Length of Day
9h 53m
Waning Crescent, 14% of the Moon is Illuminated
Jan 27
Waning Crescent
Jan 30
New
Feb 6
First Quarter
Feb 14
Full
Feb 22
Last Quarter

Hourly Weather History & Observations

Time (CST) Temp. Windchill Dew Point Humidity Pressure Visibility Wind Dir Wind Speed Gust Speed Precip Events Conditions
12:15 AM 4.6 °F -13.4 °F -7.2 °F 58% 30.33 in 10.0 mi NNW 15.0 mph 23.0 mph N/A   Clear
12:35 AM 4.1 °F -14.1 °F -7.1 °F 60% 30.32 in 10.0 mi NNW 15.0 mph 21.9 mph N/A   Clear
12:55 AM 3.7 °F -13.2 °F -7.1 °F 61% 30.33 in 10.0 mi NNW 12.7 mph 19.6 mph N/A   Clear
1:15 AM 3.2 °F -13.9 °F -6.7 °F 63% 30.33 in 10.0 mi NNW 12.7 mph - N/A   Clear
1:35 AM 3.0 °F -12.5 °F -6.2 °F 66% 30.33 in 10.0 mi NW 10.4 mph - N/A   Clear
1:55 AM 2.1 °F -13.6 °F -6.0 °F 69% 30.33 in 10.0 mi NW 10.4 mph - N/A   Clear
2:15 AM 1.4 °F -13.5 °F -6.0 °F 71% 30.35 in 10.0 mi NW 9.2 mph - N/A   Clear
2:35 AM 1.2 °F -13.7 °F -5.3 °F 74% 30.36 in 10.0 mi WNW 9.2 mph - N/A   Clear
2:55 AM 1.0 °F -14.0 °F -4.9 °F 76% 30.36 in 10.0 mi NW 9.2 mph - N/A   Clear
3:15 AM 1.8 °F -16.4 °F -5.3 °F 72% 30.36 in 10.0 mi NW 13.8 mph - N/A   Clear
3:35 AM 1.9 °F -16.2 °F -5.8 °F 70% 30.37 in 10.0 mi NW 13.8 mph - N/A   Clear
3:55 AM 1.8 °F -16.4 °F -6.7 °F 68% 30.37 in 10.0 mi NNW 13.8 mph 18.4 mph N/A   Clear
4:15 AM 1.4 °F -15.3 °F -8.0 °F 65% 30.38 in 10.0 mi NW 11.5 mph 18.4 mph N/A   Clear
4:35 AM 0.5 °F -15.6 °F -8.1 °F 67% 30.39 in 10.0 mi NW 10.4 mph 16.1 mph N/A   Clear
4:55 AM -0.8 °F -15.1 °F -8.7 °F 69% 30.39 in 10.0 mi WNW 8.1 mph - N/A   Clear
5:15 AM -1.5 °F -14.7 °F -8.5 °F 72% 30.40 in 10.0 mi WNW 6.9 mph - N/A   Clear
5:35 AM -2.2 °F -16.8 °F -8.7 °F 74% 30.40 in 10.0 mi NW 8.1 mph - N/A   Clear
5:55 AM -2.7 °F -17.5 °F -8.9 °F 75% 30.40 in 10.0 mi WNW 8.1 mph - N/A   Clear
6:15 AM -3.5 °F -15.7 °F -9.2 °F 76% 30.41 in 10.0 mi NW 5.8 mph - N/A   Clear
6:35 AM -4.5 °F -16.9 °F -10.3 °F 76% 30.42 in 10.0 mi NW 5.8 mph - N/A   Clear
6:55 AM -3.8 °F -17.5 °F -9.4 °F 77% 30.43 in 10.0 mi NW 6.9 mph - N/A   Clear
7:15 AM -2.0 °F -15.4 °F -8.3 °F 75% 30.43 in 10.0 mi NNW 6.9 mph - N/A   Clear
7:35 AM -2.7 °F -14.8 °F -8.7 °F 76% 30.44 in 10.0 mi NW 5.8 mph - N/A   Clear
7:55 AM -4.7 °F -15.4 °F -10.3 °F 77% 30.44 in 10.0 mi West 4.6 mph - N/A   Clear
8:15 AM -3.1 °F -13.5 °F -8.5 °F 78% 30.45 in 10.0 mi West 4.6 mph - N/A   Clear
8:35 AM -1.1 °F -14.3 °F -7.6 °F 74% 30.46 in 10.0 mi West 6.9 mph - N/A   Clear
8:55 AM 0.5 °F -15.6 °F -6.7 °F 72% 30.47 in 10.0 mi WNW 10.4 mph - N/A   Clear
9:15 AM 1.9 °F -14.7 °F -6.3 °F 68% 30.48 in 10.0 mi NW 11.5 mph - N/A   Clear
9:35 AM 3.2 °F -17.1 °F -6.2 °F 65% 30.48 in 10.0 mi NW 18.4 mph 21.9 mph N/A   Clear
9:55 AM 3.9 °F -15.6 °F -6.9 °F 61% 30.48 in 10.0 mi NW 17.3 mph 23.0 mph N/A   Clear
10:15 AM 4.3 °F -16.7 °F -7.6 °F 58% 30.49 in 10.0 mi NW 20.7 mph 24.2 mph N/A   Clear
10:35 AM 5.4 °F -14.2 °F -8.0 °F 54% 30.49 in 10.0 mi NW 18.4 mph 23.0 mph N/A   Clear
10:55 AM 5.9 °F -12.4 °F -8.1 °F 53% 30.49 in 10.0 mi NW 16.1 mph 25.3 mph N/A   Clear
11:15 AM 6.6 °F -9.5 °F -8.5 °F 50% 30.49 in 10.0 mi NNW 12.7 mph 18.4 mph N/A   Clear
11:35 AM 7.2 °F -10.8 °F -8.9 °F 48% 30.49 in 10.0 mi NW 16.1 mph 20.7 mph N/A   Clear
11:55 AM 7.9 °F -9.9 °F -8.9 °F 47% 30.49 in 10.0 mi NW 16.1 mph - N/A   Clear
12:15 PM 8.4 °F -8.6 °F -9.4 °F 44% 30.48 in 10.0 mi NW 15.0 mph 20.7 mph N/A   Clear
12:35 PM 8.6 °F -5.5 °F -10.3 °F 42% 30.47 in 10.0 mi NNW 10.4 mph 18.4 mph N/A   Clear
12:55 PM 9.3 °F -8.0 °F -9.9 °F 42% 30.46 in 10.0 mi NNW 16.1 mph 19.6 mph N/A   Clear
1:15 PM 9.9 °F -4.7 °F -9.9 °F 41% 30.45 in 10.0 mi NNW 11.5 mph 20.7 mph N/A   Clear
1:35 PM 10.6 °F -3.1 °F -9.8 °F 40% 30.44 in 10.0 mi NNW 10.4 mph 18.4 mph N/A   Clear
1:55 PM 11.3 °F -4.3 °F -9.4 °F 39% 30.43 in 10.0 mi NW 13.8 mph 17.3 mph N/A   Clear
2:15 PM 11.7 °F -3.8 °F -9.6 °F 38% 30.43 in 10.0 mi NW 13.8 mph 19.6 mph N/A   Clear
2:35 PM 11.8 °F -3.6 °F -9.9 °F 37% 30.43 in 10.0 mi NW 13.8 mph 17.3 mph N/A   Clear
2:55 PM 11.1 °F -4.5 °F -10.3 °F 38% 30.43 in 10.0 mi NNW 13.8 mph 17.3 mph N/A   Clear
3:15 PM 11.7 °F -0.9 °F -10.1 °F 37% 30.43 in 10.0 mi NW 9.2 mph 16.1 mph N/A   Clear
3:35 PM 11.7 °F 1.1 °F -10.7 °F 36% 30.43 in 10.0 mi NNW 6.9 mph - N/A   Clear
3:55 PM 11.7 °F 0.0 °F -10.7 °F 36% 30.43 in 10.0 mi NNW 8.1 mph - N/A   Clear
4:15 PM 11.5 °F -2.7 °F -10.1 °F 37% 30.44 in 10.0 mi NW 11.5 mph - N/A   Clear
4:35 PM 11.3 °F -1.3 °F -9.8 °F 38% 30.44 in 10.0 mi NW 9.2 mph - N/A   Clear
4:55 PM 10.9 °F -1.8 °F -9.6 °F 39% 30.44 in 10.0 mi NW 9.2 mph - N/A   Clear
5:15 PM 10.0 °F 1.8 °F -9.6 °F 41% 30.44 in 10.0 mi NNW 4.6 mph - N/A   Clear
5:35 PM 8.8 °F 2.2 °F -10.3 °F 42% 30.44 in 10.0 mi North 3.5 mph - N/A   Clear
5:55 PM 7.7 °F 1.0 °F -10.3 °F 44% 30.44 in 10.0 mi NNW 3.5 mph - N/A   Clear
6:15 PM 7.2 °F - -10.5 °F 44% 30.45 in 10.0 mi Calm Calm - N/A   Clear
6:35 PM 6.6 °F - -10.5 °F 46% 30.45 in 10.0 mi Calm Calm - N/A   Clear
6:55 PM 5.9 °F - -10.5 °F 47% 30.45 in 10.0 mi Calm Calm - N/A   Clear
7:15 PM 5.9 °F - -10.5 °F 47% 30.45 in 10.0 mi Calm Calm - N/A   Clear
7:35 PM 4.5 °F - -11.2 °F 48% 30.45 in 10.0 mi Calm Calm - N/A   Clear
7:55 PM 2.8 °F - -11.7 °F 51% 30.45 in 10.0 mi Calm Calm - N/A   Clear
8:15 PM 3.2 °F - -11.2 °F 51% 30.45 in 10.0 mi Calm Calm - N/A   Clear
8:35 PM 4.1 °F - -11.2 °F 49% 30.45 in 10.0 mi Calm Calm - N/A   Clear
8:55 PM 2.3 °F - -11.2 °F 53% 30.45 in 10.0 mi Calm Calm - N/A   Clear
9:15 PM 1.8 °F - -10.3 °F 57% 30.45 in 10.0 mi Calm Calm - N/A   Clear
9:35 PM 2.3 °F - -9.8 °F 57% 30.45 in 10.0 mi Calm Calm - N/A   Clear
9:55 PM 1.8 °F - -9.4 °F 60% 30.45 in 10.0 mi Calm Calm - N/A   Clear
10:15 PM 1.0 °F - -10.3 °F 59% 30.45 in 10.0 mi Calm Calm - N/A   Clear
10:35 PM 1.4 °F - -9.8 °F 60% 30.45 in 10.0 mi Calm Calm - N/A   Clear
10:55 PM 1.0 °F - -8.9 °F 63% 30.45 in 10.0 mi Calm Calm - N/A   Clear
11:15 PM 0.7 °F - -8.1 °F 66% 30.45 in 10.0 mi Calm Calm - N/A   Clear
11:35 PM -2.9 °F - -12.5 °F 64% 30.45 in 10.0 mi Calm Calm - N/A   Clear
11:55 PM -3.3 °F - -12.1 °F 66% 30.45 in 10.0 mi Calm Calm - N/A   Clear